OBJECT K, 65559

Orbit data source: Space-Track

You're viewing an Uncataloged Satellite

Recently launched and/or uncataloged satellites may have evolving metadata. Metadata may include but not limited to: Owner, Maufacturer, Bus, Motor, and Mission.

OBJECT K, 65559 is a satellite owned by GeeSpace (CN) in LEO that was launched on Mon, 08 Sep 2025 UTC via a JIELONG-3 launch vehicle from the Yellow Sea Launch Area, China (YSLA). Unknown objects in Earth's orbit typically refer to objects detected orbiting the Earth but have not yet been identified or cataloged. These objects could be anything from previously untracked satellites, spent rocket stages, debris from satellite collisions, or even natural meteoroids temporarily captured by Earth's gravity.

Loading next visibility...
Identifier
65559, 2025-201K
Orbit
LEO
Country
Flag of CNCN / PRC
Related business
None
Manufacturer
Taizhou Xingkong
Mission
Operational spacecraft
Bus & Motor
GEESAT1, Unknown motor
Mass
130 kg wet, 130 kg dry
Launch date (UTC)
2025-09-08 (1 week ago)
Launch vehicle
JIELONG-3
Launch site
Yellow Sea Launch Area, China (YSLA)
Object type
Unknown
Shape & HBR
Unknown
Radar Cross Section
Medium (>0.1 m² and <1 m²)

Expand to show TLE details & history
Last TLE update: 2 days ago

TLE from 2 days ago
0 OBJECT K
1 65559U 25201K   25258.43518871  .00004894  00000-0  49770-3 0  9994
2 65559  49.9796 234.2039 0011584 314.6012  45.3984 14.92225012   983
Epoch: 2025-09-15T10:26Z
TLE epoch observation values (Epoch: 2025-09-15T10:26:40.304Z)
Latitude
-0.00001°
Longitude
82.89608°
Altitude
585.88 km
Speed
7.572 km/s
True Right ascension
15h 36m 48s
True Declination
0° 00' 00"
Sunlit
Object was in daylight at epoch
Visualization orbit readout
Latitude
Unknown
Longitude
Unknown
Altitude
Unknown
Speed
Unknown
Apparent Right ascension
Unknown
Apparent Declination
Unknown
Sunlit
N/A
Visualization observer readout
Local Sidereal Time
03:03:18
Azimuth
Unknown
Elevation
Unknown
Doppler factor
Unknown
Orbital elements
Apogee altitude
599.838 km
Perigee altitude
583.69 km
Semi-major axis
6,969.901 km
Eccentricity
0.00116
Inclination
49.9796°
RAAN
234.2039°
Arg. of periapsis
314.6012°
True anomaly
45.49301°
Mean anomaly
45.3984°
Eccentric anomaly
45.4457°
Mean motion
3.72995 °/min
Orbital period
96.52 mins
BSTAR
0.0004977
Loading maneuver chart data...
Computing Atmospheric mass density...
Loading historical data...
Loading historical data...
Loading historical data...
Loading historical data...
Loading historical data...
Loading historical data...
Loading historical data...

Documentation

Showing up to 5 results
|